Retour au catalogue

STARLINK-36997

ActifCommunicationsVLEO
NORAD 68248·PAYLOAD·🇺🇸 United States

Lancé Mar 17, 2026 depuis Vandenberg Space Force Base

Loading…

Prochains Passages (prochaines 24 heures)

TLE

FraisSource: CelesTrak SupGP

Époque: Sep 15, 2026, 04:03 UTC

1 68248C 26054S   26258.16923611  .00035178  00000+0  10395-2 0  2588
2 68248  53.1556 134.3879 0001194  87.7073 358.3191 15.34369769    11

Suivez STARLINK-36997 en temps réel avec AllMySat

Download on the App Store